Location: *
(28.2408°N, 53.4600°E)
Time: 10:44:46
(UTC+00:00)

Ariane Rocket - Pass Details

Date: 22 September 2019
Orbit: 761 x 769 km, 98.8° (Epoch: 22 October)

Event Time Altitude Azimuth Distance (km) Brightness Sun altitude
Rises 15:25:34 0° 160° (SSE) 3,208 5.9 -14.5°
Reaches altitude 10° 15:27:51 10° 158° (SSE) 2,286 5.2 -15.0°
Maximum altitude 15:32:51 70° 76° (ENE) 812 2.9 -16.1°
Drops below altitude 10° 15:37:54 10° 353° (N) 2,302 5.7 -17.2°
Sets 15:40:13 0° 351° (N) 3,232 6.5 -17.7°
